User: anonymous   Login
Location: Oshawa
(43.9000°N, 78.8670°W)
Time: 20:31:33
(UTC-05:00)
Language:

SPOT 5 - Orbit

View from above orbital plane
View from above orbital plane
View from above satellite
View from above satellite

Ground track
Ground track

The orbit data is extracted from the following two-line orbital elements,

1 27421U 02021A   14330.48262008  .00000004  00000-0  21479-4 0  1591
2 27421 098.5423 028.2948 0001329 093.1402 031.6508 14.20112946651359
Epoch (UTC): 26 November 2014 11:34:58
Eccentricity: 0.0001329
inclination: 98.5423°
perigee height: 824 km
apogee height: 826 km
right ascension of ascending node: 28.2948°
argument of perigee: 93.1402°
revolutions per day: 14.20112946
mean anomaly at epoch: 31.6508°
orbit number at epoch: 65135

The dashed part of the orbit path shows where the satellite is in the earth's shadow,  

DLR